Tracking 17138 objects as of 7-July-2015
HD Live streaming from Space Station

ALPHASAT (INMARSAT 4A-F4)

Track ALPHASAT (INMARSAT 4A-F4) now!
ALPHASAT (INMARSAT 4A-F4) is classified as:


NORAD ID: 39215
Int'l Code: 2013-038A
Perigee: 35,785.4 km
Apogee: 35,802.6 km
Inclination: 0.9 °
Period: 1,436.1 minutes
Semi major axis: 42164 km
RCS: Unknown
Launch date: July 25, 2013
Source: International Mobile Satellite Organization (INMARSAT) (IM)

INMARSAT-4A F4, with 12 kilowatts of end-of-life power, will operate a contracted 15 years from 25 degrees east to expand the amount of L-band spectrum Inmarsat has at its disposal with its existing fleet.
Your satellite tracking list
Your tracking list is empty





NASA's NSSDC Master Catalog

Two Line Element Set (TLE):
1 39215U 13038A   15187.94066892  .00000126  00000-0  00000+0 0  9999
2 39215 000.8831 033.7162 0002036 038.4453 215.9150 01.00270879  7174

Source of the keplerian elements: AFSPC

N2YO: 311